Flag for U.S.A. Weather past 2 weeks in Glendale, California, U.S.A.

Now
84 °F

Sunny.


Feels Like: 81 °F
Forecast: 57 / 83 °F
Wind: 8 mph from South

Location: Burbank-Glendale-Pasadena Airport

Current Time: Mar 28, 2015 at 5:36:41 PM

Latest Report: Mar 28, 2015 at 4:53 PM


Visibility: 10 mi

Pressure: 29.96 "Hg

Humidity: 12%

Dew point: 26 °F

Location of GlendaleLocation

Historic Weather in Glendale — Graph

°F

Glendale temperature yesterday

Maximum temperature yesterday: 91 °F (at 1:53 PM)
Minimum temperature yesterday: 60 °F (at 6:53 AM)
Average temperature yesterday: 76 °F

Past Weeks' High & Low Weather Summary

 TemperatureHumidityPressure
High91 °F (Mar 26, 3:53 PM)90% (Mar 21, 5:53 AM)30.16 "Hg (Mar 21, 5:53 AM)
Low53 °F (Mar 23, 6:53 AM)11% (Mar 13, 3:53 PM)29.84 "Hg (Mar 16, 5:53 PM)
Average70 °F45%30.00 "Hg
* Reported Mar 13 3:53 PM — Mar 28 3:53 PM, Glendale, Weather by CustomWeather, © 2015

Note: Actual official high and low records may vary slightly from our data, if they occured in-between our weather recording intervals... More about our weather records

Advertising

Glendale weather history for previous 24 hours

 ConditionsComfort  
Time TempWeatherWind HumidityBarometerVisibility
3:53 PM
Sat, Mar 28
85 °FSunny.10 mph13%29.96 "Hg10 mi
2:53 PM86 °FSunny.9 mph17%29.97 "Hg10 mi
1:53 PM83 °FSunny.8 mph30%29.99 "Hg10 mi
12:53 PM82 °FSunny.9 mph32%30.02 "Hg10 mi
11:53 AM81 °FSunny.7 mph29%30.03 "Hg10 mi
10:53 AM77 °FSunny.5 mph33%30.03 "Hg10 mi
9:53 AM71 °FSunny.No wind41%30.04 "Hg10 mi
8:53 AM65 °FSunny.No wind52%30.04 "Hg10 mi
7:53 AM61 °FSunny.No wind62%30.03 "Hg10 mi
6:53 AM58 °FClear.No wind54%30.02 "Hg10 mi
5:53 AM59 °FClear.No wind49%30.02 "Hg10 mi
4:53 AM60 °FClear.No wind41%30.01 "Hg10 mi
3:53 AM63 °FClear.No wind37%30.01 "Hg10 mi
2:53 AM65 °FClear.3 mph49%30.01 "Hg10 mi
11:53 PM
Fri, Mar 27
70 °FClear.5 mph23%30.01 "Hg10 mi
10:53 PM73 °FClear.7 mph21%30.01 "Hg10 mi
9:53 PM74 °FClear.5 mph22%30.00 "Hg10 mi
8:53 PM79 °FClear.3 mph17%29.99 "Hg10 mi
7:53 PM82 °FSunny.5 mph14%29.98 "Hg10 mi
6:53 PM85 °FSunny.12 mph13%29.96 "Hg10 mi
5:53 PM89 °FSunny.15 mph11%29.96 "Hg10 mi
Weather by CustomWeather, © 2015

See weather overviewHow to use our weather pages